Wind_Speed
3 5 6 4 4 4 2 6 3 2 1 2 1 4 9 2 3 6 5 8 10 8 5 2 6 9 12 13 13 12 12 12 11 10 10 11 13 15 13 12 11 11 13 14 14 16 17 16 15
5 5 5 2 4 3 4 5 1 1 3 2 2 1 6 4 4 5 3 10 13 15 14 2 3 8 11 12 13 14 13 11 10 11 10 10 13 15 15 13 11 12 13 12 14 14 19 15 17
6 5 4 4 3 4 4 2 3 1 4 2 2 4 4 4 2 5 10 12 12 14 14 14 7 4 10 13 14 14 14 13 12 10 9 11 13 14 15 13 13 14 10 16 15 17 15 16 19
3 5 4 4 5 5 5 4 3 1 4 6 3 6 3 4 3 8 11 7 5 8 10 11 12 6 5 11 13 15 16 15 15 12 9 12 12 14 14 14 16 11 14 17 17 14 14 18 19
3 3 4 1 4 2 1 2 1 3 3 3 3 2 5 6 13 12 9 4 3 5 7 7 8 8 6 8 13 15 17 17 16 16 13 12 14 14 15 15 15 14 17 15 13 14 14 18 19
4 3 3 4 4 4 1 4 1 3 4 3 4 3 2 7 10 7 5 5 7 9 11 12 9 8 7 8 10 15 17 19 18 17 16 12 15 14 15 15 15 15 17 16 15 14 14 19 19
5 3 4 3 4 5 3 3 2 3 1 3 1 3 3 1 7 4 4 5 8 11 13 12 9 9 9 9 9 14 18 19 19 19 18 16 15 18 16 15 16 18 18 16 15 16 16 19 21
4 3 2 3 4 3 2 2 4 2 3 3 1 3 3 3 8 2 3 6 10 14 14 12 10 10 12 10 11 10 17 20 20 21 21 20 18 18 19 17 17 19 19 17 16 16 17 20 22
3 3 2 2 2 2 2 2 1 1 2 2 2 4 5 13 3 7 10 11 14 15 14 13 13 14 13 12 12 12 12 21 23 23 23 23 22 19 22 21 19 20 20 17 17 16 16 18 21
3 2 4 0 0 2 1 1 2 1 2 4 4 4 6 6 8 6 10 14 14 16 17 15 14 15 17 17 14 14 14 16 24 25 26 26 25 23 23 23 21 21 21 19 18 17 16 17 20
0 3 1 1 2 1 2 4 3 1 5 7 6 5 6 5 10 8 9 12 15 15 17 18 17 17 18 20 20 17 17 17 19 28 29 30 29 26 26 25 23 25 24 23 20 19 18 18 20
2 4 4 3 2 2 2 3 4 5 8 5 6 8 6 9 8 11 14 15 12 13 16 18 18 19 20 21 22 23 20 18 20 24 32 33 32 30 30 29 28 30 29 28 26 24 22 20 20
2 3 5 5 7 5 3 8 7 7 11 10 9 8 9 9 12 14 8 5 7 11 17 21 22 20 20 22 23 24 26 24 22 24 28 34 36 35 33 33 29 30 32 31 29 27 24 23 21
4 4 7 6 7 5 6 8 5 8 8 10 9 11 10 10 10 1 1 7 12 17 22 28 31 31 29 27 26 25 27 28 28 26 28 31 37 37 37 32 32 30 34 35 33 30 27 25 23
5 6 7 8 8 5 2 5 8 15 8 9 10 8 9 4 7 3 4 10 14 19 23 28 32 31 29 30 31 29 29 29 30 31 30 31 37 38 38 35 33 36 34 37 34 31 29 27 26
5 2 4 6 5 4 6 7 11 9 5 9 9 9 2 2 1 6 12 14 17 20 23 26 27 29 31 33 34 34 34 31 32 32 34 33 34 39 38 37 35 35 34 39 38 35 33 31 31
6 3 4 8 7 4 5 5 9 6 4 7 8 7 6 4 6 9 15 17 19 22 25 27 26 27 30 29 31 32 33 36 35 34 35 35 35 36 38 37 37 37 35 38 38 36 36 35 34
5 5 5 7 5 6 8 12 11 14 9 9 6 5 4 6 8 13 16 20 22 23 25 25 25 28 29 29 30 31 31 35 36 36 37 37 33 34 37 36 38 39 36 36 36 34 35 34 34
4 5 7 7 8 6 9 15 12 12 8 9 6 6 5 7 6 14 19 22 22 25 25 24 25 29 26 26 23 24 28 30 33 37 37 35 34 36 37 36 35 39 38 38 40 36 33 32 32
2 5 7 7 4 4 7 17 14 11 9 9 8 6 5 6 7 11 21 23 20 24 28 29 27 28 27 25 24 25 23 28 33 34 37 37 33 36 37 36 35 37 38 37 35 36 29 29 34
3 5 5 6 7 5 5 10 8 7 7 6 6 5 3 4 7 8 13 21 24 24 26 24 26 27 29 29 27 26 28 30 28 32 35 39 35 36 38 38 34 37 36 38 40 39 35 28 32
5 3 5 8 6 4 5 6 6 6 2 6 7 5 2 4 5 6 10 17 21 24 24 25 28 28 27 25 24 25 25 23 25 27 28 32 31 35 37 37 37 38 38 37 39 41 40 34 26
7 4 5 4 3 4 4 2 7 2 3 6 7 5 3 5 7 7 8 15 21 19 22 24 26 27 26 23 24 25 27 26 28 30 29 31 31 34 36 37 36 34 36 37 39 38 41 38 34
6 5 5 0 1 2 5 5 6 4 6 3 3 5 5 5 6 7 14 17 18 21 19 19 21 21 22 23 23 22 26 25 26 28 29 32 33 37 32 34 34 37 35 39 38 44 49 46 39
6 4 4 4 2 5 0 4 10 6 6 7 8 6 6 5 5 6 7 10 18 22 23 21 21 23 22 22 23 23 27 28 27 31 30 28 32 33 35 37 35 35 38 34 41 43 31 39 40
2 0 2 5 3 5 3 6 6 5 6 6 5 5 4 5 5 6 7 10 15 19 25 28 26 24 23 22 24 25 28 29 31 29 30 33 30 33 35 34 34 35 35 40 36 38 41 41 37
1 1 1 3 2 4 4 7 7 3 3 3 5 5 6 5 6 6 7 9 14 18 21 24 26 27 24 23 22 18 21 26 28 29 30 32 33 34 30 31 31 32 35 38 36 36 35 39 41
2 1 4 2 4 5 5 6 5 5 6 6 6 8 7 5 6 6 6 11 13 17 20 22 25 25 25 25 20 17 15 20 27 27 29 31 31 31 30 29 28 30 34 41 38 36 24 33 32
1 1 1 3 3 3 3 7 6 7 8 9 9 8 7 7 6 6 5 10 12 14 20 22 25 26 27 27 22 17 13 11 18 24 26 27 29 30 31 32 30 30 34 36 38 30 35 29 31
3 6 5 4 4 3 3 7 4 5 8 8 8 8 7 6 6 4 5 8 10 14 18 20 21 23 23 23 23 22 18 11 12 14 12 17 26 30 31 31 32 32 33 33 35 32 22 30 27
Wind_Direction
100 44 25 43 71 66 248 262 312 59 76 229 277 101 108 49 43 154 84 83 55 48 38 247 218 208 199 193 181 176 172 162 159 156 152 149 146 143 143 141 142 146 146 150 149 154 148 139 134
62 53 50 76 94 122 256 301 135 323 288 299 112 110 43 74 75 105 80 87 67 58 47 23 302 224 208 203 197 189 184 173 168 167 163 159 154 150 147 148 148 149 152 160 155 156 141 138 133
78 43 82 103 122 187 195 224 163 294 1 350 103 56 85 120 78 103 107 92 71 55 43 34 18 250 218 210 209 206 197 188 180 189 181 166 165 160 154 152 163 156 166 172 155 151 141 138 137
50 27 32 104 209 246 186 210 202 279 356 23 336 58 30 2 113 108 104 94 73 52 36 28 21 11 235 223 219 215 211 202 196 195 195 174 173 169 165 159 159 163 155 149 161 149 144 144 142
45 62 82 143 242 219 116 215 108 88 114 5 358 99 100 52 99 97 87 70 35 3 3 4 1 0 350 245 231 223 221 214 210 202 201 195 182 181 177 173 174 174 168 162 159 155 149 150 149
32 81 87 203 229 135 79 282 106 48 3 345 46 80 115 128 88 67 37 0 345 333 323 324 318 328 326 330 244 233 223 225 217 213 207 206 194 189 190 188 188 183 179 173 165 164 157 157 157
104 78 210 210 212 153 184 327 76 115 69 27 122 111 160 221 35 360 353 333 322 330 328 317 302 296 305 298 306 243 232 224 224 219 215 207 204 193 201 203 194 189 185 186 178 173 166 164 164
98 103 250 259 204 178 227 109 162 117 182 304 168 202 218 193 346 12 25 347 329 324 326 322 302 294 294 286 288 288 238 231 221 219 218 217 213 207 201 207 200 195 195 193 189 185 175 170 170
68 66 243 297 169 187 262 151 344 263 111 330 188 175 257 312 333 341 337 328 324 321 322 322 309 286 300 293 277 281 275 237 229 220 218 219 216 211 207 208 205 200 200 201 198 195 185 176 175
81 123 232 301 36 165 21 26 332 342 56 287 303 268 258 313 316 330 323 317 318 317 318 316 310 304 284 283 289 277 272 260 232 224 218 218 218 215 211 210 208 206 205 206 203 201 196 186 181
320 214 321 301 114 33 315 313 322 289 274 220 221 269 280 257 288 279 287 294 299 300 305 312 309 302 294 284 274 279 272 263 250 234 225 219 216 215 213 210 207 208 206 205 204 205 205 197 191
265 256 264 251 166 152 241 285 299 222 240 241 231 249 273 284 266 271 292 306 304 303 304 312 313 304 295 291 283 273 269 266 258 246 233 223 216 214 212 211 209 207 204 204 205 208 210 205 200
256 288 321 309 300 269 238 237 242 243 249 255 253 250 254 257 250 268 297 309 321 321 310 306 306 302 300 294 283 280 270 262 263 260 243 232 223 215 212 213 207 206 206 206 207 210 210 210 208
306 290 287 296 284 265 253 253 179 261 246 258 249 249 251 245 255 186 319 320 321 315 308 302 298 294 289 285 282 277 273 266 258 259 253 242 230 219 212 208 207 207 211 209 211 211 211 211 211
280 301 309 265 259 233 241 277 235 252 255 250 259 253 248 271 151 159 295 311 316 311 308 302 298 293 289 282 275 274 268 263 259 254 254 249 232 220 213 207 207 210 210 213 213 213 213 212 210
313 14 342 303 339 233 148 278 277 282 253 257 245 262 311 184 259 311 321 313 315 315 313 308 301 295 290 284 279 272 265 262 257 250 250 249 241 222 212 208 207 209 208 213 212 213 212 213 212
10 309 318 322 306 279 210 261 272 278 313 287 277 285 201 252 284 289 318 315 315 318 316 310 301 296 292 286 283 271 262 258 255 252 245 244 244 230 212 210 209 206 205 207 209 211 213 211 215
271 264 235 243 279 311 283 267 268 278 270 263 282 211 260 285 277 317 326 322 318 318 316 311 303 295 288 285 285 271 261 252 253 250 245 243 237 235 222 213 208 204 202 203 206 208 212 213 213
246 256 267 266 264 280 265 274 268 268 269 269 250 227 261 280 282 318 325 323 319 319 313 307 298 299 291 283 279 256 247 245 244 244 244 241 235 235 228 217 210 201 201 202 207 203 205 211 214
313 291 292 285 290 301 281 282 274 250 246 231 192 207 265 299 314 323 325 320 314 314 316 312 301 297 294 281 274 247 249 244 239 240 240 240 232 233 230 229 213 202 200 202 202 199 201 209 208
274 263 274 272 310 264 264 282 255 270 241 146 156 179 231 292 313 312 307 308 316 316 313 303 295 291 291 287 273 258 248 247 239 232 235 234 233 231 235 229 218 210 200 200 200 200 199 197 205
301 256 284 296 350 282 49 291 281 274 146 154 171 186 239 283 291 270 291 306 311 311 309 303 301 297 290 290 275 252 238 234 234 234 236 236 232 231 236 232 232 225 202 202 201 200 201 199 197
251 291 280 259 261 310 311 113 275 115 156 188 201 197 251 261 261 282 294 301 304 311 314 311 309 299 295 286 280 255 238 236 233 232 234 231 233 235 234 238 229 230 222 207 204 203 201 200 200
279 312 310 222 136 306 233 157 281 217 206 188 188 221 244 269 290 285 291 298 305 325 314 308 300 300 300 296 287 266 237 230 227 228 232 233 233 231 229 235 238 235 236 224 213 205 204 200 202
35 46 334 346 349 233 212 150 253 248 222 182 194 228 246 263 287 303 295 294 320 327 338 336 326 316 318 303 292 277 253 240 230 230 230 232 230 231 235 236 236 239 236 228 215 214 208 210 203
258 48 137 301 304 287 310 233 251 260 185 181 177 205 217 267 278 282 293 310 319 340 340 343 334 327 327 322 301 284 260 248 242 237 232 234 235 235 237 240 240 240 243 238 223 222 205 205 214
349 56 299 258 197 278 267 295 310 73 131 195 216 228 241 255 279 292 305 306 340 350 341 338 337 339 336 331 325 302 269 253 241 239 239 239 242 243 244 243 243 242 240 236 238 226 212 207 211
185 207 47 342 328 298 288 284 246 242 230 233 245 242 262 267 290 310 319 334 338 346 345 352 353 342 336 342 352 345 297 262 246 244 242 241 244 243 244 243 244 248 247 243 240 233 248 211 204
117 288 159 130 187 204 300 276 216 236 207 212 232 243 248 258 266 286 307 337 342 345 355 354 355 353 347 347 351 348 336 296 250 243 244 246 249 248 245 249 249 250 248 247 245 225 229 227 214
203 202 160 134 254 212 167 272 270 252 209 205 237 249 250 234 237 250 289 313 336 352 354 354 356 0 358 358 352 1 6 335 255 237 244 253 249 249 250 252 252 253 249 243 243 239 211 215 217
Height
794 794 793 794 820 827 828 814 798 792 793 784 783 786 793 795 800 813 800 800 799 798 797 798 798 799 800 801 802 803 803 804 805 806 806 806 806 807 809 811 812 812 813 815 815 817 818 820 821
794 794 794 805 829 835 828 809 802 798 791 784 783 787 790 802 795 799 801 801 800 799 798 798 798 798 800 800 802 803 804 805 806 806 807 807 807 808 809 811 813 813 814 815 816 817 818 820 821
795 795 803 818 832 830 822 804 801 794 791 788 788 787 792 801 797 798 801 802 800 799 799 798 798 798 799 800 802 803 804 805 806 806 806 807 808 809 809 811 812 814 814 814 816 818 819 821 823
795 798 809 821 822 810 805 802 796 795 791 791 790 798 795 796 796 798 800 800 800 800 799 799 799 798 799 800 801 801 803 804 805 805 806 807 808 809 810 811 812 814 814 816 817 818 820 821 823
797 805 822 822 815 801 800 797 795 796 797 796 791 801 801 800 799 799 800 800 800 800 800 800 799 799 799 798 799 800 801 802 803 804 805 807 808 809 810 811 812 813 815 816 817 818 821 822 824
808 810 827 826 813 802 801 800 796 799 801 798 796 799 803 800 799 800 801 801 801 800 800 800 799 798 798 798 797 798 799 800 802 803 804 806 807 809 810 811 812 814 815 816 816 818 820 822 824
810 821 822 814 808 806 801 798 802 802 802 801 797 803 803 800 799 799 799 800 799 799 799 798 798 797 797 797 796 796 797 797 800 801 803 804 806 807 809 810 812 814 815 816 816 817 819 822 824
811 816 813 807 810 807 800 799 799 799 802 797 796 806 804 798 799 798 798 797 798 797 797 797 797 796 795 795 795 794 794 795 796 798 801 803 804 806 808 809 811 813 814 816 817 818 818 820 823
807 821 822 808 807 806 801 801 798 797 799 797 796 798 797 796 797 797 796 796 795 795 795 795 795 794 794 793 793 793 792 793 794 795 798 800 802 804 806 807 810 812 814 816 817 818 819 820 822
815 825 813 805 805 806 805 803 801 800 802 800 797 794 794 795 795 795 794 793 793 792 792 792 792 792 792 791 790 790 790 790 791 792 794 797 799 801 803 805 808 810 812 814 816 817 819 820 822
815 819 809 806 806 804 806 807 802 802 804 799 799 794 792 792 793 793 792 791 790 790 789 790 789 789 789 788 787 787 787 787 787 789 790 792 795 798 800 803 805 807 809 812 814 816 817 819 821
816 810 810 806 805 806 808 805 806 803 800 793 793 793 792 791 791 789 787 787 788 789 787 787 787 786 786 785 784 784 784 784 784 785 786 788 791 793 796 799 801 803 805 807 810 812 815 817 819
816 811 808 808 807 806 805 806 805 800 793 790 789 790 789 788 786 785 786 786 787 786 785 784 783 783 782 781 781 780 780 781 781 782 782 784 785 787 791 794 797 799 801 803 806 808 811 815 817
814 811 810 807 805 804 804 803 803 792 788 788 787 786 784 783 783 784 784 785 784 783 781 779 778 777 777 776 776 775 775 775 776 777 778 778 780 782 784 788 792 794 796 799 802 805 808 811 815
812 815 810 803 800 802 797 801 797 786 786 787 784 782 780 781 781 782 782 781 780 779 777 775 772 771 770 770 769 769 768 769 769 771 772 773 775 776 778 781 786 788 791 795 798 802 805 808 811
817 817 823 803 798 794 797 804 791 785 785 785 783 781 781 783 781 780 778 777 776 773 771 769 767 765 764 763 762 762 762 762 762 763 766 768 769 770 772 774 778 782 785 789 793 796 800 803 806
831 833 826 815 800 795 796 800 787 782 782 784 781 781 781 781 779 778 775 773 771 768 765 763 762 759 757 756 755 753 754 754 755 756 758 760 763 765 765 767 770 775 779 783 786 790 794 797 800
833 828 821 814 802 796 799 796 788 781 780 781 782 781 780 781 776 773 770 769 765 763 761 758 755 753 751 750 748 746 746 746 747 748 749 753 756 758 760 761 762 766 772 776 780 784 788 791 794
817 820 821 812 801 799 797 790 785 779 777 778 779 779 779 778 772 769 766 764 761 758 756 753 750 746 745 742 741 739 736 738 738 739 742 744 748 751 754 753 756 757 762 767 771 776 781 786 790
815 820 820 807 798 799 796 786 777 773 770 770 774 777 776 774 769 764 761 760 757 754 750 746 743 740 738 736 734 732 729 728 730 732 733 736 739 744 746 749 748 749 754 760 765 769 774 779 783
814 816 816 814 803 797 794 788 776 763 761 765 769 770 771 769 767 763 760 755 752 749 746 743 738 735 731 729 728 726 725 723 723 722 725 727 731 736 739 742 740 744 745 749 755 760 764 770 775
821 807 807 807 815 819 798 813 784 767 761 763 767 768 765 765 763 762 758 753 750 745 742 738 733 728 724 721 720 719 717 715 716 717 719 721 724 729 732 734 736 738 734 740 745 750 755 761 766
816 807 809 805 812 813 805 825 782 763 762 763 765 761 759 761 760 757 755 751 746 743 739 734 728 723 718 715 713 711 709 709 709 711 712 715 716 721 724 727 731 732 734 730 736 742 746 750 754
804 807 809 806 816 818 801 804 785 770 759 758 758 757 757 757 756 755 751 748 744 739 735 731 725 718 714 710 707 704 702 701 702 704 706 707 709 713 715 720 723 726 728 727 731 731 732 737 742
809 819 836 834 824 824 786 799 769 756 753 753 755 755 756 755 754 752 750 747 741 734 729 725 719 712 707 703 700 698 697 697 696 697 699 701 703 705 707 712 715 717 721 718 722 724 728 735 737
811 806 824 831 850 825 790 782 765 748 747 748 749 751 753 753 753 750 747 743 739 733 727 720 715 709 704 699 694 691 690 690 691 692 693 695 697 699 702 705 708 710 712 714 713 720 721 727 727
809 827 808 815 828 811 797 773 751 749 750 751 751 752 752 751 750 747 744 742 736 731 727 723 715 708 703 698 691 686 684 684 684 685 687 690 693 695 698 700 702 704 706 708 714 715 715 721 724
808 812 833 839 835 820 799 787 775 756 756 755 754 752 750 748 747 744 742 739 735 731 727 722 716 710 702 695 688 682 678 677 677 680 682 684 687 691 693 694 696 698 699 701 704 709 707 716 720
818 822 818 834 825 843 845 790 761 752 752 753 751 750 748 747 745 743 741 739 736 733 727 722 717 710 702 695 688 681 677 673 672 674 677 679 682 685 687 688 690 692 692 693 696 701 702 706 708
808 811 815 835 836 832 845 798 748 746 746 748 748 746 744 742 741 740 738 737 735 731 727 724 719 713 707 699 692 685 678 673 670 670 672 674 676 678 680 683 685 686 686 686 687 691 699 702 706